TimeCDT,TemperatureF,Dew PointF,Humidity,Sea Level PressureIn,VisibilityMPH,Wind Direction,Wind SpeedMPH,Gust SpeedMPH,PrecipitationIn,Events,Conditions,WindDirDegrees,DateUTC
12:53 AM,70.0,39.0,32,29.93,10.0,ENE,11.5,-,N/A,,Clear,60,2012-09-20 05:53:00
1:53 AM,66.9,37.9,34,29.91,10.0,ENE,12.7,-,N/A,,Clear,60,2012-09-20 06:53:00
2:53 AM,64.0,39.0,40,29.93,10.0,NE,8.1,-,N/A,,Clear,50,2012-09-20 07:53:00
3:53 AM,60.1,39.0,46,29.93,10.0,NE,4.6,-,N/A,,Clear,40,2012-09-20 08:53:00
5:53 AM,55.9,39.0,53,29.94,10.0,NE,5.8,-,N/A,,Clear,50,2012-09-20 10:53:00
6:53 AM,54.0,39.9,59,29.97,10.0,WNW,4.6,-,N/A,,Clear,300,2012-09-20 11:53:00
7:53 AM,53.1,39.9,61,29.98,10.0,North,5.8,-,N/A,,Clear,10,2012-09-20 12:53:00
8:53 AM,55.9,39.9,55,29.99,10.0,North,4.6,-,N/A,,Clear,360,2012-09-20 13:53:00
9:53 AM,63.0,39.9,43,29.99,10.0,NNE,6.9,-,N/A,,Clear,30,2012-09-20 14:53:00
10:53 AM,69.1,41.0,36,29.97,10.0,ENE,8.1,-,N/A,,Clear,70,2012-09-20 15:53:00
11:53 AM,75.0,43.0,32,29.96,10.0,Variable,5.8,-,N/A,,Clear,0,2012-09-20 16:53:00
12:53 PM,77.0,44.1,31,29.94,-9999.0,East,8.1,-,N/A,,Clear,90,2012-09-20 17:53:00
1:53 PM,81.0,46.0,29,29.92,-9999.0,East,6.9,-,N/A,,Clear,80,2012-09-20 18:53:00
2:53 PM,82.9,46.0,27,29.90,10.0,ESE,4.6,-,N/A,,Clear,120,2012-09-20 19:53:00
3:53 PM,84.0,46.9,27,29.87,10.0,East,6.9,-,N/A,,Clear,80,2012-09-20 20:53:00
4:53 PM,86.0,46.9,26,29.86,10.0,ESE,5.8,-,N/A,,Clear,120,2012-09-20 21:53:00
5:53 PM,84.9,46.9,27,29.85,10.0,SE,5.8,-,N/A,,Clear,130,2012-09-20 22:53:00
6:53 PM,84.9,48.0,28,29.85,10.0,East,4.6,-,N/A,,Clear,90,2012-09-20 23:53:00
7:53 PM,79.0,48.0,34,29.87,10.0,Calm,Calm,-,N/A,,Clear,0,2012-09-21 00:53:00
8:53 PM,73.0,48.0,41,29.89,10.0,North,9.2,-,N/A,,Clear,360,2012-09-21 01:53:00
9:53 PM,71.1,48.0,44,29.90,10.0,NNE,8.1,-,N/A,,Clear,20,2012-09-21 02:53:00
10:53 PM,70.0,48.0,46,29.91,10.0,NE,10.4,-,N/A,,Clear,50,2012-09-21 03:53:00
11:53 PM,70.0,50.0,49,29.89,10.0,ENE,10.4,-,N/A,,Clear,70,2012-09-21 04:53:00